Niagara Falls, NY

9:02 PM EST on November 16, 2019 (GMT -0500)
Niagara Falls International

Weather History for KIAG - September, 2019

Change the Weather History Date:

Sunday, September 1, 2019

  Actual Average Record
Temperature  
Mean Temperature 63 °F -  
Max Temperature 72 °F 75 °F 88 °F (2010)
Min Temperature 55 °F 56 °F 46 °F (1991)
Degree Days  
Heating Degree Days 2    
Growing Degree Days 13 (Base 50)    
Moisture  
Dew Point 57 °F    
Average Humidity 80    
Maximum Humidity 97    
Minimum Humidity 59    
Precipitation  
Precipitation 0.74 in - - ()
Sea Level Pressure  
Sea Level Pressure 30.19 in    
Wind  
Wind Speed 4 mph ()    
Max Wind Speed 13 mph    
Max Gust Speed -    
Visibility 8.2 miles    
Events Rain , Thunderstorm    
Averages and records for this station are not official NWS values.
T = Trace of Precipitation, MM = Missing Value Source: Averaged Metar Reports

Daily Weather History Graph

Daily Weather History Graph

Search for Another Location

Airport or City:

Astronomy

Sep. 01, 2019 Rise Set
Actual Time 6:39 AM EDT 7:51 PM EDT
Civil Twilight 6:10 AM EDT 8:20 PM EDT
Nautical Twilight 5:35 AM EDT 8:55 PM EDT
Astronomical Twilight 4:58 AM EDT 9:32 PM EDT
Moon 9:10 AM EDT (9/1) 9:33 PM EDT (9/1)
Length of Visible Light 14h 09m
Length of Day
13h 11m
Waxing Crescent, 8% of the Moon is Illuminated
Sep 1
Waxing Crescent
Sep 5
First Quarter
Sep 14
Full
Sep 21
Last Quarter
Sep 28
New

Hourly Weather History & Observations

Time (EDT) Temp. Dew Point Humidity Pressure Visibility Wind Dir Wind Speed Gust Speed Precip Events Conditions
12:53 AM 55.0 °F 48.0 °F 77% 30.31 in 10.0 mi East 4.6 mph - N/A   Clear
1:53 AM 55.0 °F 48.9 °F 80% 30.30 in 10.0 mi East 4.6 mph - N/A   Clear
2:53 AM 55.0 °F 48.9 °F 80% 30.29 in 10.0 mi East 3.5 mph - N/A   Clear
3:53 AM 55.9 °F 48.9 °F 77% 30.28 in 10.0 mi East 4.6 mph - N/A   Clear
4:53 AM 57.0 °F 48.9 °F 74% 30.27 in 10.0 mi East 4.6 mph - N/A   Scattered Clouds
5:53 AM 57.0 °F 50.0 °F 77% 30.27 in 10.0 mi East 6.9 mph - N/A   Overcast
6:53 AM 57.9 °F 50.0 °F 75% 30.26 in 10.0 mi ESE 8.1 mph - N/A   Overcast
7:53 AM 57.9 °F 52.0 °F 81% 30.26 in 10.0 mi East 4.6 mph - N/A   Overcast
8:53 AM 60.1 °F 53.1 °F 78% 30.25 in 10.0 mi ESE 5.8 mph - 0.00 in Rain Light Rain
9:53 AM 63.0 °F 55.0 °F 75% 30.25 in 10.0 mi SSE 3.5 mph - 0.00 in   Scattered Clouds
10:53 AM 66.0 °F 55.9 °F 70% 30.24 in 10.0 mi ENE 3.5 mph - N/A   Clear
11:53 AM 69.1 °F 55.9 °F 63% 30.22 in 10.0 mi South 6.9 mph - N/A   Partly Cloudy
12:53 PM 71.1 °F 55.9 °F 59% 30.20 in 10.0 mi SSW 4.6 mph - N/A   Scattered Clouds
1:53 PM 71.1 °F 55.9 °F 59% 30.20 in 10.0 mi WSW 3.5 mph - N/A   Mostly Cloudy
2:53 PM 71.1 °F 57.0 °F 61% 30.17 in 10.0 mi Calm Calm - N/A   Overcast
3:53 PM 70.0 °F 60.1 °F 71% 30.15 in 10.0 mi NE 6.9 mph - N/A   Overcast
4:53 PM 68.0 °F 61.0 °F 78% 30.12 in 10.0 mi NE 6.9 mph - 0.00 in Rain Light Rain
5:53 PM 66.9 °F 61.0 °F 81% 30.14 in 3.0 mi Calm Calm - 0.05 in Rain , Thunderstorm Heavy Thunderstorms and Rain
5:56 PM 66.0 °F 61.0 °F 84% 30.13 in 1.8 mi Calm Calm - 0.03 in Rain , Thunderstorm Heavy Thunderstorms and Rain
6:21 PM 64.9 °F 62.1 °F 90% 30.13 in 3.0 mi North 5.8 mph - 0.15 in Rain Heavy Rain
6:29 PM 64.0 °F 62.1 °F 93% 30.13 in 4.0 mi North 5.8 mph - 0.18 in Rain Rain
6:53 PM 64.0 °F 62.1 °F 93% 30.12 in 4.0 mi East 4.6 mph - 0.26 in Rain Rain
7:53 PM 63.0 °F 62.1 °F 97% 30.10 in 3.0 mi ESE 5.8 mph - 0.29 in Rain Light Rain
8:53 PM 63.0 °F 62.1 °F 97% 30.09 in 10.0 mi ESE 8.1 mph - 0.05 in Rain Light Rain
9:53 PM 64.0 °F 63.0 °F 96% 30.06 in 8.0 mi SE 8.1 mph - 0.01 in Rain Light Rain
10:53 PM 64.9 °F 63.0 °F 93% 30.04 in 5.0 mi South 12.7 mph - 0.04 in Rain Light Rain
11:53 PM 64.9 °F 64.0 °F 97% 30.04 in 9.0 mi South 8.1 mph - 0.04 in Rain Light Rain